User: anonymous   Login
Location: Caltech
(34.1382°N, 118.1253°W)
Time: 15:20:45
(UTC-07:00)
Language:

SL-16 R/B - Orbit

View from above orbital plane
View from above orbital plane
View from above satellite
View from above satellite

Ground track
Ground track

The orbit data is extracted from the following two-line orbital elements,

1 28353U 04021B   15149.51364014 -.00000186  00000-0 -72341-4 0  9990
2 28353 070.9999 210.5901 0007363 260.3784 099.6506 14.14148588566177
Epoch (UTC): 29 May 2015 12:19:38
Eccentricity: 0.0007363
inclination: 70.9999°
perigee height: 840 km
apogee height: 850 km
right ascension of ascending node: 210.5901°
argument of perigee: 260.3784°
revolutions per day: 14.14148588
mean anomaly at epoch: 99.6506°
orbit number at epoch: 56617

The dashed part of the orbit path shows where the satellite is in the earth's shadow,  

DLR